Location: 22
(39.7117°N, 89.5929°W)
Time: 10:03:18
(UTC-05:00)

Transit 2A - Pass Details

Date: 10 August 2024
Orbit: 590 x 961 km, 66.7° (Epoch: 13 September)

Event Time Altitude Azimuth Distance (km) Brightness Sun altitude
Rises 05:20:18 0° 245° (WSW) 3,268 - -8.9°
Exits shadow 05:22:50 - 257° (WSW) 2,461 8.0 -8.5°
Reaches altitude 10° 05:23:02 10° 258° (WSW) 2,407 8.0 -8.4°
Maximum altitude 05:27:38 26° 314° (NW) 1,661 7.6 -7.6°
Drops below altitude 10° 05:32:35 10° 9° (N) 2,605 9.3 -6.8°
Sets 05:35:40 0° 22° (NNE) 3,594 10.3 -6.3°
